THORAD AGENA D DEB, 4432

Orbit data source: Space-Track

THORAD AGENA D DEB, 4432 is space debris in LEO originally from a launch on Tue, 30 Sep 1969 UTC launched from the Air Force Western Test Range (AFWTR). Debris objects in space refer to the collection of defunct objects orbiting the Earth. Examples of debris include non-operational satellites, rocket bodies, and fragments generated from explosions, collisions, or faulty payload assembly.

Loading next visibility...
Identifier
4432, 1969-082ED
Orbit
LEO
Country
Flag of USUS
Related business
Manufacturer
Unknown
Mission
Spacecraft
Bus & Motor
Unknown
Mass
Unknown
Launch date (UTC)
1969-09-30 (57 years ago)
Launch vehicle
Unknown
Launch site
Air Force Western Test Range (AFWTR)
Object type
Payload
Rocket body
Debris
Shape & HBR
Unknown shape, 0.1 m
Radar Cross Section
Medium (>0.1 m² and <1 m²)

Expand to show TLE details & history
Last TLE update: 2 days ago

TLE from 2 days ago
0 THORAD AGENA D DEB
1 04432U 69082ED  26172.70941056  .00000327  00000-0  14557-3 0  9995
2 04432  69.9777 288.4647 0050443 131.3293 229.2189 14.30461149935730
Epoch: 2026-06-21T17:01Z
TLE epoch observation values (Epoch: 2026-06-21T17:01:33.072Z)
Latitude
0.00006°
Longitude
123.17113°
Altitude
816.264 km
Speed
7.433 km/s
True Right ascension
19h 13m 51s
True Declination
0° 00' 00"
Sunlit
Object was in full shadow at epoch
Visualization orbit readout
Latitude
Unknown
Longitude
Unknown
Altitude
Unknown
Speed
Unknown
Apparent Right ascension
Unknown
Apparent Declination
Unknown
Sunlit
N/A
Visualization observer readout
Local Sidereal Time
01:00:03
Azimuth
Unknown
Elevation
Unknown
Doppler factor
Unknown
Orbital elements
Apogee altitude
824.352 km
Perigee altitude
752.054 km
Semi-major axis
7,166.34 km
Eccentricity
0.00504
Inclination
69.9777°
RAAN
288.4647°
Arg. of periapsis
131.3293°
True anomaly
228.78301°
Mean anomaly
229.2189°
Eccentric anomaly
229.00077°
Mean motion
3.57764 °/min
Orbital period
100.62 mins
BSTAR
0.00014557

Documentation

Showing up to 5 results
|